CAPE
0 0 0 0 0 0 0 0 0 0 0 72 106 58 371 302 289 205 174 153 109 88 169 215 319 521 612 524 599 600 603 667 490 478 498 640 756 1000 1080 938 1200 1549 1635 1776
0 0 0 0 0 0 0 0 0 0 16 11 84 70 85 366 319 344 187 170 93 108 182 239 284 428 584 735 677 596 641 710 653 429 685 815 1049 1078 1231 1029 1395 1577 1702 2040
0 0 0 0 0 0 0 0 0 0 0 26 72 35 88 474 393 235 211 136 133 127 168 249 296 385 499 668 798 639 811 838 858 783 759 914 1014 993 1078 1050 1155 1601 1799 1899
0 0 0 0 0 0 0 0 0 0 0 10 62 5 27 253 541 485 272 119 156 89 108 199 245 305 392 587 687 816 785 889 645 901 1005 1493 995 893 968 1220 1137 1533 1706 1643
0 0 0 0 0 0 0 0 0 0 0 0 12 0 0 46 390 637 623 460 201 174 126 170 245 302 368 507 561 609 738 1077 1080 1057 1117 1018 1338 1063 1034 965 1353 1436 1661 1679
0 0 0 0 0 0 0 0 0 0 0 0 0 0 0 0 121 508 665 706 582 347 177 236 302 324 311 385 456 506 786 1076 1135 955 1005 1538 1673 1190 840 960 928 965 1154 1494
0 0 0 0 0 0 0 0 0 0 0 0 0 0 0 0 11 95 436 721 739 646 482 307 355 407 420 455 494 621 1184 1115 1071 980 1110 1312 1647 1683 1317 1224 866 1114 745 1006
0 0 0 0 0 0 0 0 0 0 0 0 0 0 0 0 0 6 145 408 699 768 737 628 533 640 678 759 830 800 1041 1184 1081 1026 1261 1445 1601 812 860 1318 800 662 487 591
0 0 0 0 0 0 0 0 0 0 0 0 0 0 0 0 0 0 0 124 461 766 839 797 656 639 727 868 981 804 1038 1113 1075 970 1286 1387 1411 1351 1084 1537 1386 687 1100 457
0 0 0 0 0 0 0 0 0 0 0 0 0 0 0 0 0 0 0 0 75 415 627 852 890 884 865 721 946 952 1004 1126 1106 985 1055 952 1271 1324 1340 1290 1353 1342 1039 806
0 0 0 0 0 0 0 0 0 0 0 0 0 0 0 0 0 0 0 0 22 96 239 510 884 1151 935 712 842 915 911 1109 1103 992 996 1178 1211 1083 1083 910 1054 1317 1153 1092
0 0 0 0 0 0 0 0 0 0 0 0 0 0 0 0 0 0 0 0 0 84 164 252 401 746 962 1205 952 867 800 805 973 1033 1137 1178 1359 1425 974 1091 944 1024 1288 1134
1 0 0 0 0 0 0 0 0 0 0 0 0 0 0 0 0 0 0 0 0 74 148 212 228 701 993 1262 1258 1066 921 644 746 968 831 1172 1371 1213 1475 1521 1268 1023 1314 1336
28 0 0 0 0 0 0 3 0 0 0 0 0 0 0 0 0 0 0 0 0 12 102 232 239 337 805 1042 1350 1293 1124 717 660 782 905 1258 1450 1544 1514 1692 1613 1188 1396 1494
17 0 0 0 0 0 0 0 0 0 0 0 0 0 0 0 0 0 0 0 0 0 117 315 233 627 512 802 1324 1399 1323 1159 992 1068 1115 1312 1510 1621 1749 1804 1694 1404 1487 1560
9 0 0 0 0 0 0 0 0 0 0 0 0 0 0 0 0 0 0 0 9 35 0 90 298 609 702 513 999 1423 1430 1245 1251 1300 1314 1492 1662 1747 1802 1871 1819 1722 1460 1550
19 0 0 0 0 0 0 0 0 0 0 0 0 0 0 0 3 0 0 0 0 13 103 54 41 772 778 623 881 1283 1410 1338 1263 1417 1511 1737 1851 1849 1897 1892 2068 2188 2203 1901
4 3 7 0 0 0 0 0 0 0 0 0 0 0 0 26 0 0 0 0 0 0 1 185 332 15 623 518 535 1183 1223 1452 1362 1412 1495 1751 1913 1956 2027 2014 1880 2049 1721 2208
28 45 34 0 0 0 77 0 0 0 0 0 0 0 0 57 49 4 38 105 7 6 6 216 863 5 430 610 1074 1399 1474 1515 1525 1518 1606 1683 1875 2074 2203 2147 2138 2045 1871 1615
52 135 139 0 5 5 82 15 5 0 0 0 0 0 0 67 88 1 86 227 251 309 332 968 581 120 311 934 846 1559 1384 1703 1756 1806 1808 1888 1935 2071 2258 2414 2516 2607 2281 2128
20 40 0 24 0 26 58 65 61 38 2 6 15 0 25 36 4 49 261 538 454 453 352 1138 651 672 1324 1340 1369 1645 1771 1858 1812 1569 1710 2169 2215 2276 2367 2536 2673 2751 2537 2662
0 5 36 0 8 37 0 53 62 47 37 11 19 15 27 65 132 339 735 887 740 636 468 599 1280 823 852 1198 1514 1767 1905 1840 2178 2262 2141 2510 2657 2230 2024 2866 2669 2716 2896 2853
34 19 0 0 0 0 0 34 72 64 49 37 6 21 55 90 360 544 835 1121 1138 763 705 539 553 575 714 1616 1196 1303 1602 1603 2182 2514 2708 2646 2678 2533 2881 2939 3006 2717 2895 2692
0 0 0 0 0 0 0 2 10 40 49 34 4 5 69 269 545 552 750 1021 1395 1173 981 831 779 787 877 857 955 1066 1843 1794 1574 2060 2261 2409 2507 2758 2833 2616 2654 2684 2829 2959
0 0 0 0 0 0 0 0 4 19 37 23 14 6 164 333 371 262 463 855 1292 1351 1245 995 893 915 1007 1220 1297 1414 1518 2006 2301 1923 1735 1877 1983 2361 2659 2874 2699 2834 3338 2923
0 0 0 0 0 0 1 3 2 12 18 2 15 15 191 266 263 320 247 352 549 1078 1307 1392 1278 1254 1334 1363 1417 1466 1495 1634 1812 2148 2575 2387 2799 2594 2395 2314 2176 2203 2451 2608
CIN
0 0 0 0 0 0 0 0 0 0 0 -28 -31 -64 -91 -182 -177 -197 -203 -221 -234 -224 -144 -107 -83 -36 -19 -41 -59 -71 -77 -84 -87 -87 -73 -49 -38 -38 -43 -56 -67 -60 -43 -25
0 0 0 0 0 0 0 0 0 0 -2 -10 -6 -20 -87 -138 -189 -177 -234 -94 -249 -213 -159 -121 -99 -63 -34 -23 -48 -74 -83 -79 -92 -90 -63 -46 -39 -34 -29 -51 -58 -53 -41 -28
0 0 0 0 0 0 0 0 0 0 0 -5 -4 -4 -80 -113 -146 -190 -202 -77 -60 -236 -199 -163 -134 -108 -64 -37 -42 -67 -68 -71 -69 -71 -50 -58 -51 -51 -33 -41 -39 -39 -41 -30
0 0 0 0 0 0 0 0 0 0 0 -1 -1 -1 -53 -77 -142 -166 -196 -223 -89 -77 -223 -172 -146 -134 -129 -88 -69 -59 -67 -56 -78 -62 -34 -18 -24 -28 -21 -23 -21 -25 -44 -38
0 0 0 0 0 0 0 0 0 0 0 0 -2 0 0 -81 -82 -118 -152 -191 -209 -74 -228 -212 -209 -175 -141 -77 -80 -75 -77 -45 -38 -47 -40 -31 -13 -25 -31 -34 -24 -29 -43 -48
0 0 0 0 0 0 0 0 0 0 0 0 0 0 0 0 -93 -101 -135 -166 -190 -203 -149 -215 -188 -147 -136 -95 -86 -72 -67 -51 -45 -54 -55 -28 -10 -34 -48 -39 -36 -22 -17 -22
0 0 0 0 0 0 0 0 0 0 0 0 0 0 0 0 -60 -76 -91 -159 -203 -210 -209 -224 -191 -184 -165 -126 -109 -73 -31 -55 -58 -55 -46 -49 -26 -25 -47 -46 -44 -27 -32 -24
0 0 0 0 0 0 0 0 0 0 0 0 0 0 0 0 0 -11 -83 -94 -139 -180 -192 -227 -224 -187 -187 -158 -125 -98 -58 -48 -64 -59 -51 -46 -46 -57 -59 -46 -58 -61 -61 -56
0 0 0 0 0 0 0 0 0 0 0 0 0 0 0 0 0 0 0 -130 -141 -180 -200 -223 -257 -218 -193 -171 -141 -158 -99 -78 -66 -72 -54 -55 -61 -65 -67 -56 -77 -85 -55 -78
0 0 0 0 0 0 0 0 0 0 0 0 0 0 0 0 0 0 0 0 -140 -173 -192 -179 -219 -250 -213 -213 -186 -175 -145 -123 -117 -91 -74 -77 -87 -104 -97 -93 -96 -71 -77 -89
0 0 0 0 0 0 0 0 0 0 0 0 0 0 0 0 0 0 0 0 -156 -158 -214 -208 -239 -250 -290 -255 -201 -186 -182 -144 -114 -128 -123 -95 -88 -128 -137 -144 -140 -102 -99 -91
0 0 0 0 0 0 0 0 0 0 0 0 0 0 0 0 0 0 0 0 0 -182 -186 -241 -270 -302 -287 -258 -235 -229 -219 -174 -149 -137 -133 -133 -106 -100 -146 -157 -166 -158 -112 -121
-1 0 0 0 0 0 0 0 0 0 0 0 0 0 0 0 0 0 0 0 0 -240 -217 -258 -277 -298 -319 -293 -276 -228 -244 -228 -190 -165 -166 -134 -121 -114 -118 -141 -163 -174 -150 -130
-4 0 0 0 0 0 0 -2 0 0 0 0 0 0 0 0 0 0 0 0 0 -299 -274 -269 -316 -334 -356 -359 -329 -289 -243 -249 -244 -196 -175 -151 -138 -126 -140 -148 -149 -181 -167 -140
-3 0 0 0 0 0 0 0 0 0 0 0 0 0 0 0 0 0 0 0 0 0 -306 -280 -325 -331 -412 -394 -349 -313 -260 -250 -222 -232 -211 -185 -165 -157 -149 -121 -146 -182 -160 -154
-2 0 0 0 0 0 0 0 0 0 0 0 0 0 0 0 0 0 0 0 -393 -388 -7 -332 -322 -306 -370 -454 -440 -412 -353 -336 -277 -249 -246 -214 -172 -145 -156 -149 -139 -154 -207 -177
-3 0 0 0 0 0 0 0 0 0 0 0 0 0 0 0 -155 0 0 0 0 -445 -532 -382 -420 -342 -411 -448 -478 -479 -442 -380 -354 -285 -239 -208 -179 -173 -173 -179 -133 -129 -143 -160
-2 0 0 0 0 0 0 0 0 0 0 0 0 0 0 -212 0 0 0 0 0 0 -45 -656 -562 -198 -443 -428 -472 -462 -460 -422 -379 -321 -274 -240 -214 -209 -189 -179 -196 -180 -212 -148
-4 -14 -3 0 0 0 -1 0 0 0 0 0 0 0 0 -239 -216 -53 -248 -336 -368 -572 -485 -741 -575 -39 -388 -425 -491 -512 -487 -428 -374 -338 -308 -299 -264 -214 -190 -194 -192 -200 -209 -234
-8 0 0 0 -3 0 0 -14 -21 -1 0 0 0 0 0 -147 -80 -23 -262 -301 -276 -440 -541 -505 -575 -441 -457 -435 -542 -524 -539 -439 -400 -345 -329 -295 -269 -234 -217 -193 -182 -176 -199 -210
0 0 -4 -3 0 -7 -2 0 0 -3 -6 -88 -121 0 -129 -132 -30 -181 -150 -166 -277 -387 -517 -409 -440 -414 -448 -482 -543 -509 -442 -440 -430 -388 -348 -280 -268 -253 -248 -224 -193 -181 -195 -160
0 -10 -3 0 -1 -2 0 0 -3 -3 -15 -69 -71 -131 -104 -112 -85 -60 -37 -65 -166 -292 -477 -510 -351 -448 -464 -447 -435 -419 -422 -407 -368 -334 -334 -284 -259 -281 -283 -194 -212 -197 -169 -160
-6 -16 -8 0 0 0 0 -1 -2 -5 -41 -47 -28 -115 -78 -88 -34 -21 -12 -18 -86 -227 -321 -333 -291 -294 -601 -351 -412 -416 -405 -421 -345 -292 -273 -282 -261 -262 -211 -206 -186 -208 -184 -200
0 0 0 0 0 -13 0 -22 -1 -7 -4 -51 0 -63 -75 -22 -6 -10 -14 -13 -10 -72 -149 -247 -223 -226 -450 -451 -463 -488 -347 -359 -415 -340 -315 -306 -290 -255 -239 -262 -253 -244 -225 -207
0 0 0 0 0 0 0 0 -1 -31 -22 -56 0 -27 -35 -5 -14 -32 -36 -19 -7 -11 -69 -140 -177 -182 -299 -282 -304 -251 -295 -216 -213 -283 -324 -308 -297 -268 -233 -222 -260 -254 -191 -240
0 0 0 0 0 0 0 -1 0 -64 -48 -23 0 -24 -22 -7 -26 -29 -56 -71 -68 -27 -34 -67 -108 -136 -160 -171 -169 -166 -158 -188 -207 -184 -144 -199 -160 -177 -243 -273 -337 -229 -327 -341
Wind_Speed
nan nan nan nan nan nan nan nan nan nan nan nan 13 nan 15 15 15 12 4 5 7 nan 13 9 6 3 6 8 7 7 10 13 15 15 11 10 11 12 14 14 13 12 13 15
nan nan nan nan nan nan nan nan nan nan nan nan nan nan nan 13 8 10 6 5 nan 5 9 11 10 8 3 9 9 9 11 12 17 18 18 18 15 13 13 11 11 10 11 12
nan nan nan nan nan nan nan nan nan nan nan nan nan nan nan 16 18 14 12 12 14 2 7 9 12 9 2 8 9 10 12 13 17 18 18 18 16 14 12 12 11 9 10 12
nan nan nan nan nan nan nan nan nan nan nan nan nan nan nan 23 15 13 18 21 19 nan 3 5 8 9 2 10 13 13 13 14 16 15 16 15 14 14 14 14 13 10 9 12
nan nan nan nan nan nan nan nan nan nan nan nan nan nan nan nan 23 12 9 8 15 14 5 3 6 4 4 13 16 17 15 14 15 15 16 16 16 13 10 12 11 11 8 10
nan nan nan nan nan nan nan nan nan nan nan nan nan nan nan nan 18 14 12 8 14 18 10 2 2 5 8 13 18 18 16 15 14 15 12 13 14 11 9 10 8 9 9 8
nan nan nan nan nan nan nan nan nan nan nan nan nan nan nan nan nan nan 10 10 7 3 2 5 4 2 3 4 13 16 17 14 14 13 13 14 13 8 7 8 8 7 9 10
nan nan nan nan nan nan nan nan nan nan nan nan nan nan nan nan nan nan 29 23 17 9 4 4 7 5 5 4 12 15 14 14 12 13 14 16 14 14 10 8 10 9 11 10
nan nan nan nan nan nan nan nan nan nan nan nan nan nan nan nan nan nan nan 28 19 10 7 6 9 8 4 6 8 13 14 13 12 10 16 17 15 12 10 8 10 11 11 12
nan nan nan nan nan nan nan nan nan nan nan nan nan nan nan nan nan nan nan nan nan 15 10 7 12 10 6 5 10 13 16 13 13 13 14 16 14 12 10 10 10 10 10 9
nan nan nan nan nan nan nan nan nan nan nan nan nan nan nan nan nan nan nan nan nan nan 10 7 9 11 5 10 12 11 15 15 17 17 15 15 16 12 9 10 10 10 10 8
nan nan nan nan nan nan nan nan nan nan nan nan nan nan nan nan nan nan nan nan nan nan 11 9 9 13 8 9 11 11 14 14 16 17 16 15 16 14 10 9 9 10 8 8
nan nan nan nan nan nan nan nan nan nan nan nan nan nan nan nan nan nan nan nan nan nan 24 15 15 16 12 10 11 11 15 11 14 17 15 17 16 12 10 10 10 9 8 7
nan nan nan nan nan nan nan nan nan nan nan nan nan nan nan nan nan nan nan nan nan nan 29 20 16 15 13 13 13 13 15 14 15 16 15 15 15 12 12 13 13 10 10 8
nan nan nan nan nan nan nan nan nan nan nan nan nan nan nan nan nan nan nan nan nan nan 35 25 17 16 17 16 17 16 18 20 16 15 16 16 17 16 17 17 13 13 10 8
nan nan nan nan nan nan nan nan nan nan nan nan nan nan nan nan nan nan nan nan nan nan nan nan 26 24 21 13 14 17 17 19 19 16 12 18 21 20 18 19 16 14 10 7
nan nan nan nan nan nan nan nan nan nan nan nan nan nan nan nan nan nan nan nan nan nan 51 nan nan 22 19 15 15 16 17 24 21 19 19 20 22 21 20 21 18 14 11 11
nan nan nan nan nan nan nan nan nan nan nan nan nan nan nan nan nan nan nan nan nan nan nan 50 37 nan 19 12 10 20 19 24 24 21 19 20 22 22 24 24 17 17 17 13
nan nan nan nan nan nan nan nan nan nan nan nan nan nan nan nan nan nan nan 70 nan nan nan 52 40 nan 26 20 20 18 19 23 25 22 19 18 20 23 24 22 19 21 21 17
nan 12 22 nan nan nan nan nan nan nan nan nan nan nan nan nan nan nan nan 65 70 63 55 50 37 28 29 22 22 24 14 20 20 21 19 22 23 22 21 22 20 23 23 17
nan nan nan nan nan nan nan nan nan nan nan nan nan nan nan nan nan nan 52 60 60 59 60 48 37 34 35 34 27 23 21 11 17 22 23 24 24 22 23 23 25 24 21 18
nan nan nan nan nan nan nan nan nan nan nan nan nan nan nan nan 57 52 50 57 57 56 54 51 49 49 48 36 35 31 22 17 20 22 24 25 26 26 25 24 25 23 22 18
nan nan nan nan nan nan nan nan nan nan nan nan nan nan nan nan 56 52 54 55 61 53 52 54 58 62 60 59 47 40 35 23 22 19 22 26 26 25 27 25 24 24 21 19
nan nan nan nan nan nan nan nan nan nan nan nan nan nan nan 59 59 58 59 55 57 65 59 53 59 62 61 56 54 54 47 30 24 19 17 23 22 22 24 28 26 24 21 18
nan nan nan nan nan nan nan nan nan nan nan nan nan nan 58 61 61 66 61 61 59 60 61 62 60 61 61 57 61 68 66 46 39 29 22 22 24 23 28 29 31 28 27 27
nan nan nan nan nan nan nan nan nan nan nan nan nan nan 57 58 61 65 63 61 62 60 59 60 62 63 60 61 57 58 57 55 50 46 38 37 35 34 31 35 34 47 46 41
Wind_Direction
nan nan nan nan nan nan nan nan nan nan nan nan 189 nan 224 261 264 269 262 342 18 nan 12 360 0 293 185 165 152 162 153 152 158 160 170 169 163 146 139 132 117 92 86 91
nan nan nan nan nan nan nan nan nan nan nan nan nan nan nan 247 246 236 252 299 nan 346 16 19 18 359 231 162 154 158 156 158 161 165 169 176 175 165 152 150 139 105 90 92
nan nan nan nan nan nan nan nan nan nan nan nan nan nan nan 217 208 243 265 280 281 336 13 9 12 8 248 164 153 161 167 171 170 172 173 182 185 178 168 173 150 125 103 95
nan nan nan nan nan nan nan nan nan nan nan nan nan nan nan 228 219 248 267 290 309 nan 3 7 3 2 15 170 180 173 173 179 180 182 176 161 169 182 173 170 159 146 114 102
nan nan nan nan nan nan nan nan nan nan nan nan nan nan nan nan 220 224 256 315 305 315 339 354 353 351 167 199 184 181 187 192 186 183 175 175 174 190 184 175 158 149 140 113
nan nan nan nan nan nan nan nan nan nan nan nan nan nan nan nan 206 209 214 242 281 313 314 278 232 234 185 192 194 189 192 197 194 190 185 188 185 189 184 175 165 159 152 144
nan nan nan nan nan nan nan nan nan nan nan nan nan nan nan nan nan nan 197 217 268 265 353 335 326 245 209 190 201 201 200 200 195 191 189 199 194 182 189 191 174 176 173 161
nan nan nan nan nan nan nan nan nan nan nan nan nan nan nan nan nan nan 174 185 202 222 205 358 350 255 185 178 217 213 208 202 204 197 203 207 203 185 183 184 181 179 181 161
nan nan nan nan nan nan nan nan nan nan nan nan nan nan nan nan nan nan nan 190 208 228 268 343 332 305 244 204 182 219 216 206 197 197 206 209 205 189 182 194 204 203 188 183
nan nan nan nan nan nan nan nan nan nan nan nan nan nan nan nan nan nan nan nan nan 201 225 241 297 315 237 210 187 209 210 207 203 203 205 209 199 195 194 200 202 220 207 199
nan nan nan nan nan nan nan nan nan nan nan nan nan nan nan nan nan nan nan nan nan nan 206 250 280 293 225 228 210 202 211 209 204 205 201 201 189 191 206 191 197 212 226 229
nan nan nan nan nan nan nan nan nan nan nan nan nan nan nan nan nan nan nan nan nan nan 178 244 276 268 235 232 224 206 209 213 211 211 204 195 197 196 193 192 201 205 226 228
nan nan nan nan nan nan nan nan nan nan nan nan nan nan nan nan nan nan nan nan nan nan 184 217 246 268 253 248 236 222 208 210 217 217 214 197 197 198 194 198 215 209 205 227
nan nan nan nan nan nan nan nan nan nan nan nan nan nan nan nan nan nan nan nan nan nan 200 211 219 238 251 244 232 229 215 213 222 227 220 212 208 206 195 207 222 197 198 228
nan nan nan nan nan nan nan nan nan nan nan nan nan nan nan nan nan nan nan nan nan nan 204 211 226 236 252 247 230 231 221 219 220 227 227 219 216 209 205 211 220 198 197 209
nan nan nan nan nan nan nan nan nan nan nan nan nan nan nan nan nan nan nan nan nan nan nan nan 209 220 240 257 244 237 239 235 232 230 225 227 222 216 214 219 220 203 200 200
nan nan nan nan nan nan nan nan nan nan nan nan nan nan nan nan nan nan nan nan nan nan 192 nan nan 204 234 255 271 245 247 245 238 235 231 229 224 219 218 222 222 206 207 210
nan nan nan nan nan nan nan nan nan nan nan nan nan nan nan nan nan nan nan nan nan nan nan 189 190 nan 218 239 267 251 249 249 239 233 234 236 231 223 226 230 226 214 215 216
nan nan nan nan nan nan nan nan nan nan nan nan nan nan nan nan nan nan nan 197 nan nan nan 187 190 nan 213 220 243 260 272 254 247 239 238 240 238 233 232 235 232 220 221 221
nan 233 207 nan nan nan nan nan nan nan nan nan nan nan nan nan nan nan nan 196 200 200 198 197 201 214 232 235 244 249 268 276 256 250 247 240 239 233 233 232 230 227 225 219
nan nan nan nan nan nan nan nan nan nan nan nan nan nan nan nan nan nan 197 202 204 206 209 206 212 216 226 230 231 241 246 295 272 250 244 240 239 237 231 225 223 227 228 221
nan nan nan nan nan nan nan nan nan nan nan nan nan nan nan nan 202 200 199 200 199 199 205 213 217 217 210 215 219 228 228 234 250 251 240 237 235 229 227 227 225 223 223 224
nan nan nan nan nan nan nan nan nan nan nan nan nan nan nan nan 199 198 193 188 194 202 199 205 206 207 204 208 215 218 218 227 241 247 242 239 237 235 229 228 224 224 227 223
nan nan nan nan nan nan nan nan nan nan nan nan nan nan nan 200 198 194 189 192 196 190 196 196 199 202 205 206 211 216 214 222 242 231 235 235 239 241 236 228 224 223 227 221
nan nan nan nan nan nan nan nan nan nan nan nan nan nan 200 200 195 191 190 185 186 189 194 198 202 209 205 206 209 215 209 218 231 230 217 222 215 223 223 223 219 221 224 219
nan nan nan nan nan nan nan nan nan nan nan nan nan nan 202 203 195 192 190 187 187 188 191 193 199 204 208 207 213 213 215 217 221 227 217 223 222 221 224 222 224 221 221 231